STARLINK-32315

Last updated on Sat Sep 28 2024 00:02:03 GMT+0000 (Coordinated Universal Time)

1 60740U 24152W 24271.58334491 -.01512263 00000+0 -39228-1 0 9990 2 60740 53.1601 201.7156 0001016 85.2235 188.1968 15.41587848 5962
UTC large
Height (km)
Speed (km/s)
/
Latitude / Longitude
Inclination (degrees)
Orbital Period (minutes)
Azimuth
Elevation
Range (km)
Doppler Factor

Next 0 passes for location: London (51.5072 / 0.1276)

Sorry there are no passes over London.